FENGYUN 1C DEB, 30322

Orbit data source: Space-Track

FENGYUN 1C DEB, 30322 is space debris in SSO originally from a launch on Mon, 10 May 1999 UTC launched from the Taiyaun Space Center, China (TSC). Fengyun 1C debris stems from the Chinese weather satellite Fengyun-1C, which was intentionally destroyed by a Chinese anti-satellite missile in 2007. This event dramatically increased the amount of space debris, with thousands of trackable fragments posing hazards to satellites and human spaceflight. The Fengyun 1C debris cloud has become a focal point in discussions about space sustainability and the need for international regulations to prevent the creation of new debris.

Loading next visibility...
Identifier
30322, 1999-025AAK
Orbit
SSO
Country
Flag of CNCN / PRC
Related business
Manufacturer
Unknown
Mission
Spacecraft
Bus & Motor
Unknown
Mass
Unknown
Launch date (UTC)
1999-05-10 (26 years ago)
Launch vehicle
Unknown
Launch site
Taiyaun Space Center, China (TSC)
Object type
Payload
Rocket body
Debris
Shape & HBR
Unknown shape, 0.1 m
Radar Cross Section
Small (<0.1 m²)

Expand to show TLE details & history
Last TLE update: 1 day ago

TLE from 1 day ago
0 FENGYUN 1C DEB
1 30322U 99025AAK 25296.59860978  .00002511  00000-0  14494-2 0  9994
2 30322  98.4022 157.8873 0129139  34.9424 326.0137 14.05755598954950
Epoch: 2025-10-23T14:21Z
TLE epoch observation values (Epoch: 2025-10-23T14:21:59.884Z)
Latitude
-0.00006°
Longitude
-89.86777°
Altitude
799.552 km
Speed
7.493 km/s
True Right ascension
10h 31m 32s
True Declination
0° 00' 00"
Sunlit
Object was in daylight at epoch
Visualization orbit readout
Latitude
Unknown
Longitude
Unknown
Altitude
Unknown
Speed
Unknown
Apparent Right ascension
Unknown
Apparent Declination
Unknown
Sunlit
N/A
Visualization observer readout
Local Sidereal Time
09:18:07
Azimuth
Unknown
Elevation
Unknown
Doppler factor
Unknown
Orbital elements
Apogee altitude
964.711 km
Perigee altitude
777.479 km
Semi-major axis
7,249.232 km
Eccentricity
0.01291
Inclination
98.4022°
RAAN
157.8873°
Arg. of periapsis
34.9424°
True anomaly
325.1753°
Mean anomaly
326.0137°
Eccentric anomaly
325.59563°
Mean motion
3.51646 °/min
Orbital period
102.38 mins
BSTAR
0.0014494
Loading maneuver chart data...
Computing Atmospheric mass density...

Documentation

Showing up to 5 results
|